Starlink 6223

operational
NORAD ID: 57057 Int'l Des: 2023-088 Owner: SPXS Country: US Constellation: starlink
LEOCIRCULAR

关于 Starlink 6223

正在加载描述...

实时位置

正在加载3D地球...

即将过境

高度历史

Altitude vs Time

uPlot chart will show altitude changes over time

两行轨道根数

1 57057U 23088K 25306.06927402 -.00000240 00000-0 -27001-5 0 9994
2 57057 43.0038 80.7929 0001164 272.9924 87.0785 15.02530860131174
Epoch: Nov 2, 2025 • Age: 33 hours

当前状态

高度 569.0 km
速度 7.58 km/s
星下点 -36.14°S, 102.04°E
发射日期 Jun 22, 2023
运行时间 2.3 years
类型 internet

技术详情

分类 Payload
质量 305.00 kg
干质量 290.00 kg
总质量 305.00 kg
长度 0.20 m
直径 2.80 m
跨度 9.00 m
形状 Box + pan
制造商 SPXS
平台类型 Starlink
阶段状态 In Orbit
所有者/国家 SPXS/US

大型星座

Loading constellations...